Bluefield, WV

8:43 PM EST on January 23, 2017 (GMT -0500)
Mercer County

Weather History for KBLF - November, 2013

Change the Weather History Date:

Wednesday, November 6, 2013

  Actual Average Record
Temperature  
Mean Temperature 61 °F 51 °F  
Max Temperature 69 °F 60 °F 75 °F (2015)
Min Temperature 52 °F 42 °F 19 °F (1967)
Degree Days  
Heating Degree Days 4 15  
Month to date heating degree days 76 83  
Since 1 July heating degree days 384 447  
Cooling Degree Days 0 0  
Month to date cooling degree days 0 0  
Year to date cooling degree days 938 851  
Growing Degree Days 10 (Base 50)    
Moisture  
Dew Point 46 °F    
Average Humidity 61    
Maximum Humidity 77    
Minimum Humidity 44    
Precipitation  
Precipitation 0.00 in 0.08 in 0.66 in (2003)
Month to date precipitation 0.39 0.53  
Year to date precipitation 34.23 34.56  
Snow  
Snow 0.00 in - - ()
Month to date snowfall 0.0  
Since 1 July snowfall 0.2  
Since 1 September snowfall 0.2  
Snow Depth 0.00 in    
Sea Level Pressure  
Sea Level Pressure 30.24 in    
Wind  
Wind Speed 9 mph (South)    
Max Wind Speed 20 mph    
Max Gust Speed 29 mph    
Visibility 10 miles    
Events      
T = Trace of Precipitation, MM = Missing Value Source: NWS Daily Summary

Daily Weather History Graph

Daily Weather History Graph

Search for Another Location

Airport or City:

Trip Planner

Search our weather history database for the weather conditions in past years. The results will help you decide how hot, cold, wet, or windy it might be!

Date:

Astronomy

Nov. 06, 2013 Rise Set
Actual Time 6:54 AM EST 5:21 PM EST
Civil Twilight 6:27 AM EST 5:48 PM EST
Nautical Twilight 5:56 AM EST 6:19 PM EST
Astronomical Twilight 5:25 AM EST 6:50 PM EST
Moon 10:06 AM EST (11/6) 8:26 PM EST (11/6)
Length of Visible Light 11h 21m
Length of Day
10h 26m
Waxing Crescent, 13% of the Moon is Illuminated
Nov 6
Waxing Crescent
Nov 10
First Quarter
Nov 17
Full
Nov 25
Last Quarter
Dec 2
New

Hourly Weather History & Observations

Time (EST) Temp. Dew Point Humidity Pressure Visibility Wind Dir Wind Speed Gust Speed Precip Events Conditions
12:39 AM 53.6 °F 46.4 °F 77% 30.40 in 10.0 mi South 6.9 mph - N/A   Overcast
12:52 AM 53.1 °F 46.0 °F 77% 30.37 in 10.0 mi SSW 4.6 mph - N/A   Overcast
1:52 AM 53.1 °F 46.0 °F 77% 30.36 in 10.0 mi SE 10.4 mph - N/A   Overcast
2:29 AM 51.8 °F 46.4 °F 82% 30.37 in 10.0 mi SSE 6.9 mph - N/A   Mostly Cloudy
2:36 AM 53.6 °F 46.4 °F 77% 30.37 in 10.0 mi South 8.1 mph 17.3 mph N/A   Mostly Cloudy
2:52 AM 53.1 °F 46.0 °F 77% 30.32 in 10.0 mi SSE 9.2 mph - N/A   Mostly Cloudy
3:02 AM 53.6 °F 46.4 °F 77% 30.36 in 10.0 mi South 5.8 mph 19.6 mph N/A   Mostly Cloudy
3:52 AM 53.1 °F 46.9 °F 80% 30.30 in 10.0 mi Variable 3.5 mph - N/A   Overcast
4:52 AM 53.1 °F 46.0 °F 77% 30.30 in 10.0 mi South 5.8 mph - N/A   Overcast
5:26 AM 53.6 °F 46.4 °F 77% 30.34 in 10.0 mi SSE 6.9 mph 17.3 mph N/A   Scattered Clouds
5:52 AM 53.1 °F 46.0 °F 77% 30.30 in 10.0 mi Variable 4.6 mph - N/A   Clear
6:52 AM 53.1 °F 46.0 °F 77% 30.30 in 10.0 mi South 8.1 mph 20.7 mph N/A   Clear
7:52 AM 54.0 °F 46.0 °F 75% 30.30 in 10.0 mi South 11.5 mph 18.4 mph N/A   Clear
8:52 AM 57.0 °F 46.0 °F 67% 30.29 in 10.0 mi South 12.7 mph 20.7 mph N/A   Clear
9:52 AM 57.0 °F 46.0 °F 67% 30.28 in 10.0 mi SSE 15.0 mph 19.6 mph N/A   Partly Cloudy
10:52 AM 62.1 °F 46.9 °F 58% 30.27 in 10.0 mi South 11.5 mph 23.0 mph N/A   Partly Cloudy
11:52 AM 64.0 °F 46.0 °F 52% 30.25 in 10.0 mi South 9.2 mph 19.6 mph N/A   Mostly Cloudy
12:52 PM 64.0 °F 46.0 °F 52% 30.21 in 10.0 mi South 9.2 mph 20.7 mph N/A   Clear
1:52 PM 69.1 °F 46.0 °F 44% 30.18 in 10.0 mi South 10.4 mph 19.6 mph N/A   Scattered Clouds
2:52 PM 66.0 °F 45.0 °F 47% 30.16 in 10.0 mi South 8.1 mph 16.1 mph N/A   Mostly Cloudy
3:52 PM 66.0 °F 45.0 °F 47% 30.14 in 10.0 mi SSE 11.5 mph 19.6 mph N/A   Clear
4:52 PM 64.0 °F 45.0 °F 50% 30.13 in 10.0 mi South 9.2 mph - N/A   Mostly Cloudy
5:52 PM 63.0 °F 45.0 °F 52% 30.13 in 10.0 mi South 8.1 mph - N/A   Overcast
6:52 PM 61.0 °F 45.0 °F 56% 30.13 in 10.0 mi SSE 9.2 mph - N/A   Clear
7:52 PM 59.0 °F 45.0 °F 60% 30.11 in 10.0 mi SSE 13.8 mph 21.9 mph N/A   Clear
8:52 PM 57.9 °F 45.0 °F 62% 30.09 in 10.0 mi SSE 8.1 mph - N/A   Clear
9:52 PM 57.0 °F 46.0 °F 67% 30.08 in 10.0 mi Variable 6.9 mph - N/A   Clear
10:52 PM 57.0 °F 46.0 °F 67% 30.06 in 10.0 mi Variable 6.9 mph - N/A   Clear
11:52 PM 57.0 °F 46.0 °F 67% 30.05 in 10.0 mi SW 3.5 mph - N/A   Clear